COSMOS 2251 DEB

Satellite information

Favourite Embed

Satellite Type and Status

DEBRISIN ORBIT

Key statistics

Satellite COSMOS 2251 DEB at a glance.

Uptime

11709

Days in orbit

Revolutions

≈ 14.6

Per day

Orbit

LEO

Low Earth Orbit

Inclination

74.1

Latest

Satellite identification and parameters

Extended collection of information and parameters for COSMOS 2251 DEB.

Object identification

Identified? True

Debris? True

Object name: COSMOS 2251 DEB

International designator: 1993-036DZ

Object number (NORAD): 33920

Object ID (CCSDS): 33920

Country: COMMONWEALTH OF INDEPENDENT STATES (CIS)

Current information (Y/N): Y

RCS size: SMALL

Orbital parameters

Period: 98.935 minutes

Inclination: 74.0614 deg

SMA: 7085.878 km

Apoapsis: 736.379 km

Periapsis: 679.107 km

RAAN: 240.0506 deg

Eccentricy: 0.0040413

Argument of periapsis: 294.6922 deg

Mean anomaly: 65.0036 deg

Mean motion: 14.5550019 rev/day

Mean motion (dot): 0.00003525 rev/day2

B* drag term: 0.00080734 1/REarth

Two-line elements (TLE)

Creation date: July 6, 2025, 6:05 p.m.

Reference frame: TEME

Reference center: EARTH

Epoch: July 6, 2025, 1:42 p.m. UTC

TLE line 0: 0 COSMOS 2251 DEB

TLE line 1: 1 33920U 93036DZ 25187.57085680 .00003525 00000-0 80734-3 0 9990

TLE line 2: 2 33920 74.0614 240.0506 0040413 294.6922 65.0036 14.55500190857970

Live tracking on map

Real-time ground track for satellite COSMOS 2251 DEB.

In-orbit conjunctions

A list of the most updated potential collisions computed for object COSMOS 2251 DEB.

Target Orbit TCA Probability of collision Miss distance Type
MACSAT 1 (M 1) LEO 2024-09-15 08:25:55 0.0002471188 272.0 (m) PAYLOAD

Associated space launch

Military communications satellite. Destroyed in a collision with Iridium 33.

COSMOS 2251 DEB was lifted into orbit during the mission ‘Kosmos-3M | Strela-2M 51’, on board a Kosmos-3M space rocket.

The launch took place on June 16, 1993, 4:17 a.m. from 132/1 (132L).

For more information about the launch, click the button.

Launch to space Kosmos-3M | Strela-2M 51
Kosmos-3M | Strela-2M 51

Agency: N/A

Status: Launch Successful

Launch date: June 16, 1993, 4:17 a.m. UTC

Rocket: Kosmos-3M

Launch pad: 132/1 (132L)

Location: Plesetsk Cosmodrome, Russian Federation

...

Latest news about this satellite

There are no fresh news available about this satellite. Check back as we update our databases every day.


Newsletter sign-up

Weekly statistics, charts and insights to help you stay on top of the space industry.